This demonstration page uses our WeatherBlox Daily Observations layout. Learn more.

Left ArrowRight Arrow

Hourly Observations for September 13, 2020

Temp ( °F °C ) Dew Point ( °F °C ) Humidity (%) Winds ( mph kmh ) Pressure ( in mb ) Visibility ( mi km ) Precip ( " mm )
12:15 am 00:15 Clear 53 11.6 50 10.2 91 91 N 3 6 30.08 1019 10 16 0.00 0.00
12:35 am 00:35 Clear 53 11.5 50 10.1 91 91 Calm 30.09 1019 10 16 0.00 0.00
12:55 am 00:55 Clear 51 10.7 49 9.6 93 93 Calm 30.09 1019 10 16 0.00 0.00
1:15 am 01:15 Clear 51 10.7 49 9.5 92 92 WNW 3 6 30.10 1019 10 16 0.00 0.00
1:35 am 01:35 Clear 51 10.4 49 9.2 92 92 Calm 30.11 1020 10 16 0.00 0.00
1:55 am 01:55 Clear 50 10 48 9.1 94 94 Calm 30.12 1020 10 16 0.00 0.00
2:15 am 02:15 Clear 49 9.7 47 8.6 93 93 WNW 3 6 30.12 1020 10 16 0.00 0.00
2:35 am 02:35 Clear 49 9.6 48 8.8 95 95 NW 3 6 30.12 1020 10 16 0.00 0.00
2:55 am 02:55 Clear 48 9.1 47 8.2 94 94 NW 5 7 30.13 1020 10 16 0.00 0.00
3:15 am 03:15 Clear 48 8.9 47 8.1 95 95 WNW 3 6 30.14 1021 10 16 0.00 0.00
3:35 am 03:35 Clear 48 8.9 47 8.1 95 95 WNW 5 7 30.14 1021 10 16 0.00 0.00
3:55 am 03:55 Clear 48 8.8 47 8.2 96 96 WNW 5 7 30.14 1021 10 16 0.00 0.00
4:15 am 04:15 Clear 47 8.4 46 7.7 95 95 W 5 7 30.15 1021 10 16 0.00 0.00
4:35 am 04:35 Clear 47 8.5 46 7.8 95 95 WNW 5 7 30.15 1021 10 16 0.00 0.00
4:55 am 04:55 Clear 47 8.1 46 7.6 97 97 WNW 5 7 30.16 1021 10 16 0.00 0.00
5:15 am 05:15 Clear 46 8 45 7.4 96 96 WNW 5 7 30.16 1021 10 16 0.00 0.00
5:35 am 05:35 Clear 46 7.7 45 7.2 97 97 WNW 5 7 30.16 1021 10 16 0.00 0.00
5:55 am 05:55 Clear 46 8 45 7.4 96 96 WNW 6 9 30.16 1021 10 16 0.00 0.00
6:15 am 06:15 Clear 46 8 45 7.3 95 95 WNW 3 6 30.17 1022 10 16 0.00 0.00
6:35 am 06:35 Clear 46 8 45 7.4 96 96 WNW 7 11 30.18 1022 10 16 0.00 0.00
6:55 am 06:55 Clear 46 8 45 7.3 95 95 W 3 6 30.18 1022 10 16 0.00 0.00
7:15 am 07:15 Clear 46 7.5 45 7 97 97 W 3 6 30.18 1022 10 16 0.00 0.00
7:35 am 07:35 Sunny 46 7.8 45 7.2 96 96 W 3 6 30.19 1022 10 16 0.00 0.00
7:55 am 07:55 Sunny 47 8.1 46 7.5 96 96 W 3 6 30.19 1022 10 16 0.00 0.00
8:15 am 08:15 Sunny 48 8.8 47 8.1 95 95 Calm 30.19 1022 10 16 0.00 0.00
8:35 am 08:35 Sunny 51 10.4 48 9.1 92 92 WNW 3 6 30.18 1022 10 16 0.00 0.00
8:55 am 08:55 Sunny 52 11.2 49 9.5 89 89 WNW 3 6 30.17 1022 10 16 0.00 0.00
9:15 am 09:15 Sunny 55 12.6 51 10.5 87 87 WNW 3 6 30.16 1021 10 16 0.00 0.00
9:35 am 09:35 Sunny 57 13.9 52 11.3 84 84 Calm 30.16 1021 10 16 0.00 0.00
9:55 am 09:55 Sunny 59 15.2 53 11.7 80 80 Calm 30.14 1021 10 16 0.00 0.00
10:15 am 10:15 Sunny 62 16.8 54 12.1 74 74 Calm 30.14 1021 10 16 0.00 0.00
10:35 am 10:35 Sunny 65 18.2 54 12 67 67 Calm 30.13 1020 10 16 0.00 0.00
10:55 am 10:55 Sunny 69 20.4 55 12.8 62 62 Calm 30.11 1020 10 16 0.00 0.00
11:15 am 11:15 Sunny 71 21.9 55 13 57 57 Calm 30.09 1019 10 16 0.00 0.00
11:35 am 11:35 Sunny 74 23.4 56 13.2 53 53 SSW 5 7 30.07 1018 10 16 0.00 0.00
11:55 am 11:55 Sunny 76 24.5 54 12.2 46 46 SSW 6 9 30.06 1018 10 16 0.00 0.00
12:15 pm 12:15 Sunny 78 25.8 51 10.4 38 38 WSW 5 7 30.05 1018 10 16 0.00 0.00
12:35 pm 12:35 Sunny 79 26.2 50 9.9 36 36 SW 6 9 30.04 1017 10 16 0.00 0.00
12:55 pm 12:55 Sunny 80 26.7 49 9.2 33 33 W 7 11 30.04 1017 10 16 0.00 0.00
1:15 pm 13:15 Sunny 80 26.9 47 8.4 31 31 NW 3 6 30.03 1017 10 16 0.00 0.00
1:35 pm 13:35 Sunny 82 27.7 46 8 29 29 SW 8 13 30.03 1017 10 16 0.00 0.00
1:55 pm 13:55 Sunny 83 28.2 44 6.7 26 26 WSW 6 9 30.01 1016 10 16 0.00 0.00
2:15 pm 14:15 Sunny 83 28.4 43 5.9 24 24 SW 6 9 30.01 1016 10 16 0.00 0.00
2:35 pm 14:35 Sunny 83 28.5 45 7.3 26 26 W 3 6 30.00 1016 10 16 0.00 0.00
2:55 pm 14:55 Sunny 84 28.8 43 6.1 24 24 SW 3 6 30.00 1016 10 16 0.00 0.00
3:15 pm 15:15 Sunny 84 29.1 44 6.7 24 24 S 5 7 29.99 1015 10 16 0.00 0.00
3:35 pm 15:35 Sunny 85 29.6 44 6.6 23 23 S 6 9 29.98 1015 10 16 0.00 0.00
3:55 pm 15:55 Sunny 85 29.6 44 6.5 23 23 Calm 29.98 1015 10 16 0.00 0.00
4:15 pm 16:15 Sunny 85 29.6 43 6.3 23 23 SSW 7 11 29.98 1015 10 16 0.00 0.00
4:35 pm 16:35 Sunny 86 29.8 42 5.8 22 22 SSE 5 7 29.97 1015 10 16 0.00 0.00
4:55 pm 16:55 Sunny 86 29.8 41 4.9 21 21 S 7 11 29.97 1015 10 16 0.00 0.00
5:15 pm 17:15 Sunny 86 30 40 4.6 20 20 S 6 9 29.98 1015 10 16 0.00 0.00
5:35 pm 17:35 Sunny 86 29.9 40 4.2 19 19 S 6 9 29.98 1015 10 16 0.00 0.00
5:55 pm 17:55 Sunny 86 30 40 4.2 19 19 Calm 29.98 1015 10 16 0.00 0.00
6:15 pm 18:15 Sunny 86 29.8 40 4.2 20 20 SSW 6 9 29.98 1015 10 16 0.00 0.00
6:35 pm 18:35 Sunny 85 29.5 41 4.8 21 21 S 3 6 29.98 1015 10 16 0.00 0.00
6:55 pm 18:55 Sunny 84 28.8 44 6.5 24 24 S 3 6 30.00 1016 10 16 0.00 0.00
7:15 pm 19:15 Sunny 82 27.5 48 8.8 31 31 SSE 5 7 30.01 1016 10 16 0.00 0.00
7:35 pm 19:35 Sunny 78 25.8 48 9 35 35 SE 7 11 30.03 1017 10 16 0.00 0.00
7:55 pm 19:55 Clear 77 25 49 9.3 37 37 SE 6 9 30.04 1017 10 16 0.00 0.00
8:15 pm 20:15 Clear 75 23.7 50 10.1 42 42 SE 6 9 30.06 1018 10 16 0.00 0.00
8:35 pm 20:35 Clear 71 21.9 51 10.6 49 49 SE 5 7 30.08 1018 10 16 0.00 0.00
8:55 pm 20:55 Clear 68 20.1 52 11.2 57 57 SE 3 6 30.10 1019 10 16 0.00 0.00
9:15 pm 21:15 Clear 68 19.8 52 11.2 58 58 SE 3 6 30.11 1020 10 16 0.00 0.00
9:35 pm 21:35 Clear 66 19.1 52 11.2 60 60 SSE 5 7 30.13 1020 10 16 0.00 0.00
9:55 pm 21:55 Clear 66 19.1 51 10.5 58 58 SE 5 7 30.13 1020 10 16 0.00 0.00
10:15 pm 22:15 Clear 64 18 51 10.6 62 62 SSE 5 7 30.15 1021 10 16 0.00 0.00
10:35 pm 22:35 Clear 64 17.6 50 10.1 62 62 SE 5 7 30.15 1021 10 16 0.00 0.00
10:55 pm 22:55 Clear 61 16.3 51 10.5 69 69 SSE 5 7 30.17 1022 10 16 0.00 0.00
11:15 pm 23:15 Clear 62 16.8 50 10.1 65 65 SSE 6 9 30.18 1022 10 16 0.00 0.00
11:35 pm 23:35 Clear 61 16.1 51 10.3 69 69 SSE 6 9 30.19 1022 10 16 0.00 0.00
11:55 pm 23:55 Clear 61 15.9 51 10.3 70 70 SSE 5 7 30.19 1022 10 16 0.00 0.00

Powered by AerisWeather